Flag for Switzerland Weather past 2 weeks in Muttenz, Basel-Land, Switzerland

Now
57 °F

Passing clouds.


Feels Like: 57 °F
Forecast: 41 / 61 °F
Wind: 3 mph from North

Location: Bale-Mulhouse

Current Time: Sep 22, 2014 at 10:45:50 AM

Latest Report: Sep 22, 2014 at 10:00 AM


Visibility: N/A

Pressure: 30.15 "Hg

Humidity: 72%

Dew point: 48 °F

Location of MuttenzLocation

Historic Weather in Muttenz — Graph

°F

Muttenz temperature yesterday

Maximum temperature yesterday: 70 °F (at 11:00 AM)
Minimum temperature yesterday: 57 °F (at 10:00 PM)
Average temperature yesterday: 63 °F

Past Weeks' High & Low Weather Summary

 TemperatureHumidityPressure
High81 °F (Sep 8, 3:00 PM)100% (Sep 8, 3:00 AM)30.15 "Hg (Sep 8, 3:00 AM)
Low48 °F (Sep 11, 5:30 AM)48% (Sep 7, 6:00 PM)29.83 "Hg (Sep 17, 4:30 PM)
Average63 °F84%30.00 "Hg
* Reported Sep 7 10:00 AM — Sep 22 10:00 AM, Muttenz, Weather by CustomWeather, © 2014

Note: Actual official high and low records may vary slightly from our data, if they occured in-between our weather recording intervals... More about our weather records

Advertising

Muttenz weather history for previous 24 hours

 ConditionsComfort  
Time TempWeatherWind HumidityBarometerVisibility
10:00 AM
Sep 22
57 °FPassing clouds.3 mph72%30.15 "HgN/A
9:16 AM54 °FScattered clouds.1 mph88%30.15 "HgN/A
9:00 AM54 °FSunny.2 mph88%30.15 "Hg10 mi
8:30 AM54 °FPartly sunny.2 mph88%30.15 "HgN/A
8:00 AM52 °FPassing clouds.2 mph94%30.15 "HgN/A
7:30 AM52 °FClear.3 mph94%30.15 "Hg10 mi
7:00 AM52 °FClear.3 mph100%30.15 "Hg10 mi
6:30 AM52 °FClear.3 mph94%30.12 "Hg10 mi
6:00 AM52 °FClear.2 mph100%30.12 "Hg10 mi
5:30 AM52 °FClear.3 mph94%30.12 "Hg10 mi
5:00 AM54 °FPassing clouds.3 mph94%30.12 "HgN/A
4:30 AM54 °FPassing clouds.3 mph94%30.12 "HgN/A
4:00 AM55 °FOvercast.3 mph88%30.12 "HgN/A
3:30 AM55 °FPassing clouds.5 mph94%30.12 "HgN/A
3:00 AM55 °FPartly cloudy.3 mph94%30.12 "HgN/A
2:00 AM55 °FPassing clouds.3 mph94%30.12 "HgN/A
1:30 AM57 °FPassing clouds.3 mph94%30.12 "HgN/A
1:00 AM57 °FPassing clouds.6 mph94%30.12 "HgN/A
12:30 AM57 °FPartly cloudy.6 mph94%30.12 "HgN/A
12:00 AM57 °FLight rain. Passing clouds.6 mph94%30.12 "Hg4 mi
11:30 PM
Sep 21
57 °FPassing clouds.6 mph94%30.09 "HgN/A
11:00 PM57 °FPassing clouds.7 mph94%30.09 "HgN/A
10:30 PM57 °FPassing clouds.6 mph100%30.09 "Hg5 mi
10:00 PM57 °FLight rain. Partly cloudy.7 mph100%30.09 "Hg5 mi
9:30 PM59 °FRain. Passing clouds.12 mph88%30.07 "Hg4 mi
9:00 PM61 °FPartly cloudy.8 mph94%30.04 "HgN/A
8:30 PM61 °FLight rain. Partly cloudy.7 mph94%30.04 "HgN/A
8:00 PM61 °FLight rain. Broken clouds.8 mph94%30.04 "HgN/A
7:30 PM63 °FRain. Partly sunny.8 mph88%30.04 "Hg5 mi
7:00 PM63 °FLight rain. Partly sunny.9 mph88%30.01 "HgN/A
6:30 PM63 °FBroken clouds.8 mph88%30.01 "HgN/A
6:00 PM63 °FSprinkles. Broken clouds.6 mph88%30.01 "HgN/A
5:30 PM63 °FBroken clouds.6 mph88%30.01 "HgN/A
5:00 PM63 °FBroken clouds.7 mph88%30.01 "HgN/A
4:30 PM63 °FBroken clouds.8 mph88%30.01 "HgN/A
4:00 PM63 °FSprinkles. Broken clouds.8 mph88%30.01 "HgN/A
3:30 PM64 °FThundershowers. Broken clouds.6 mph88%30.01 "Hg6 mi
3:00 PM68 °FScattered showers. Broken clouds.12 mph78%30.01 "Hg6 mi
2:30 PM66 °FPartly sunny.9 mph83%30.01 "HgN/A
2:00 PM68 °FScattered showers. Partly sunny.12 mph73%30.01 "HgN/A
1:30 PM70 °FPartly sunny.10 mph69%30.01 "HgN/A
1:00 PM68 °FPartly sunny.9 mph73%30.01 "HgN/A
12:30 PM68 °FPartly sunny.6 mph78%30.04 "HgN/A
12:00 PM68 °FSnow. Cloudy.7 mph73%30.04 "HgN/A
11:30 AM70 °FPartly sunny.9 mph64%30.04 "HgN/A
11:00 AM70 °FScattered clouds.2 mph69%30.04 "HgN/A
10:30 AM66 °FScattered clouds.5 mph78%30.04 "HgN/A
10:00 AM64 °FScattered clouds.3 mph88%30.04 "HgN/A
Weather by CustomWeather, © 2014

See weather overviewHow to use our weather pages